Theta_e
351 349 350 351 352 352 352 351 350 350 350 349 348 347 347 347 346 347 349 349 348 346 345 346 345 343 342 341 340 338 339 340 340 340 340 340 336 331 330 331 333 336 338 340 340 340 340 339 339 339 339 339 339 339 339 339 339 339 338 338 337 336 336 335 335 335 336 336 337 337 337 337 337 336 335 333 332 331 332 333 333 334 335 336 336
350 350 352 351 352 352 352 352 350 350 351 349 347 347 348 348 348 349 350 348 349 349 347 346 345 344 342 340 339 336 337 339 339 339 339 341 339 333 331 330 332 335 338 339 340 340 341 341 340 339 339 339 339 339 339 339 339 339 339 339 338 337 337 336 335 335 335 336 336 337 337 337 337 337 336 336 336 335 335 334 334 334 334 334 335
351 351 352 352 352 352 352 352 352 351 351 349 348 349 348 347 348 349 348 347 349 350 349 347 345 344 343 341 339 337 336 337 338 339 338 340 340 337 333 331 331 334 336 337 339 339 340 341 341 341 340 339 339 339 339 339 339 338 339 339 339 338 337 337 337 336 336 336 336 336 336 336 336 336 336 337 337 337 337 337 337 336 336 336 335
351 349 352 353 353 353 353 352 352 351 350 349 349 349 348 348 347 346 346 349 349 350 348 347 345 344 343 342 340 337 335 336 337 337 337 337 340 339 338 335 331 332 335 336 338 339 339 340 340 341 341 340 340 339 339 339 339 339 339 339 339 339 338 338 337 336 336 336 335 335 335 336 335 336 337 337 337 337 337 337 336 337 338 337 337
344 343 349 353 353 353 353 352 351 350 351 349 347 347 348 349 347 347 349 350 350 350 346 346 345 344 343 343 340 337 335 335 337 336 336 338 340 340 341 340 335 333 334 334 337 338 339 340 340 341 341 341 340 340 339 339 339 339 339 340 340 339 338 338 337 337 336 336 336 335 335 336 336 336 336 336 336 336 336 337 337 337 337 336 336
341 340 346 352 353 353 352 352 353 352 352 349 347 348 350 349 349 350 350 349 350 349 347 346 346 345 344 343 341 338 336 334 335 337 337 338 340 341 342 343 341 338 335 334 334 335 338 339 341 341 340 341 340 340 341 341 340 340 340 340 339 339 338 337 337 338 338 338 337 337 337 337 337 337 336 336 336 336 335 335 335 336 337 336 335
341 340 343 351 354 354 352 353 353 351 353 351 348 352 352 350 349 350 350 350 350 349 348 348 347 346 345 344 342 339 337 335 335 336 336 337 340 341 343 344 344 342 340 339 336 332 333 336 340 341 341 341 341 341 341 341 342 341 341 341 339 339 338 337 338 338 339 339 338 339 338 337 337 337 337 336 336 336 335 335 335 335 336 336 335
340 341 342 348 352 354 352 352 349 348 352 350 349 352 353 351 349 348 350 349 349 350 351 351 349 346 345 343 341 339 337 335 337 338 337 339 340 341 343 344 343 341 342 343 340 335 333 333 336 339 340 341 341 341 341 340 341 341 340 340 339 339 339 339 339 338 338 338 338 338 338 337 337 337 337 336 337 337 337 336 336 336 336 336 336
338 340 342 346 351 354 352 350 347 347 349 347 350 353 353 353 350 348 349 349 350 351 351 350 348 346 345 343 340 340 337 336 339 339 338 340 341 341 342 344 343 342 343 343 342 340 338 335 334 335 337 338 339 340 340 340 340 340 340 340 340 340 340 340 340 338 338 338 338 338 337 338 337 337 337 337 337 337 337 337 336 336 336 337 337
337 340 340 344 350 353 353 352 349 348 347 347 352 353 353 353 351 349 349 349 351 352 351 349 346 345 345 343 341 340 337 337 339 339 339 340 340 341 341 341 342 341 342 342 342 343 341 338 337 337 336 335 335 336 336 337 338 339 340 340 340 340 340 340 339 339 338 338 338 338 338 338 338 337 337 337 337 337 337 337 337 336 336 337 337
336 339 339 341 347 350 352 352 350 350 348 349 353 354 354 351 349 349 347 348 351 351 351 347 345 345 344 344 343 341 340 338 338 338 340 340 341 341 340 340 340 340 340 340 341 342 340 339 340 340 338 335 333 334 335 336 336 337 339 339 339 340 339 339 339 339 339 339 339 339 339 339 338 339 339 339 338 339 339 338 338 338 337 337 338
336 339 339 340 345 350 351 349 350 352 350 350 353 355 356 351 347 348 346 349 352 351 349 346 345 345 343 343 343 341 340 338 338 339 339 340 341 340 339 339 339 339 339 339 340 341 339 339 341 341 339 338 334 334 336 336 336 336 337 337 337 337 338 339 339 339 339 339 338 339 339 339 339 339 339 339 339 339 339 339 339 339 339 339 339
337 338 339 340 343 348 350 348 350 354 352 349 352 353 351 348 346 347 348 350 353 352 348 344 345 346 342 342 342 341 340 339 338 339 339 339 340 340 338 339 339 338 337 336 337 338 339 340 340 339 337 337 337 336 336 335 335 335 334 335 336 336 337 337 338 337 337 337 338 338 338 338 338 338 339 339 339 339 339 340 339 339 339 339 339
336 338 340 341 344 347 349 347 348 354 353 348 349 348 345 344 345 349 351 350 352 351 346 344 345 344 342 341 339 339 339 338 338 338 338 338 338 339 338 338 339 338 337 336 336 337 338 338 336 334 335 335 337 336 336 338 336 332 331 331 333 333 333 334 333 333 334 333 333 333 334 334 334 335 335 334 334 334 335 335 337 337 338 339 339
336 337 340 342 346 346 347 347 348 352 352 347 346 344 343 345 347 350 351 350 351 350 345 344 344 341 339 340 340 339 336 336 338 337 337 337 337 338 338 339 339 337 337 336 335 336 336 332 328 329 333 336 338 336 334 336 334 326 325 327 329 330 329 328 326 328 329 326 323 323 323 323 323 323 323 322 322 323 323 324 325 327 329 331 333
335 337 339 343 347 346 346 349 349 349 348 347 345 344 345 347 347 350 351 351 352 351 346 343 342 340 338 340 339 339 338 336 338 338 336 336 336 337 337 338 338 336 338 336 333 336 335 330 326 327 329 331 337 338 334 332 327 321 321 322 323 324 323 321 320 321 322 319 318 318 318 318 318 318 317 317 317 316 317 317 317 317 318 318 319
334 337 339 343 346 345 344 347 347 347 347 348 347 347 350 352 351 349 349 350 350 351 349 345 343 341 340 340 338 340 340 337 337 337 336 335 334 337 337 337 337 337 338 336 332 337 336 330 327 328 330 331 335 338 335 328 321 318 317 318 318 319 318 318 318 319 319 319 320 320 320 320 320 320 320 319 319 318 317 317 316 315 315 315 315
336 338 340 343 345 344 345 344 346 347 346 347 348 348 351 354 353 350 350 349 346 349 349 346 344 341 340 341 341 343 340 337 337 336 336 337 335 336 337 338 338 337 338 336 333 336 337 335 334 333 335 337 336 337 334 325 318 318 319 319 320 320 320 321 321 322 322 322 322 322 322 322 322 322 322 321 321 321 320 318 318 317 317 316 316
340 339 338 343 345 343 344 345 346 348 348 347 346 350 354 355 353 351 350 346 343 347 346 345 345 341 340 341 342 343 341 338 339 337 337 339 337 337 338 338 339 339 338 337 335 336 336 337 339 338 337 337 337 337 335 327 321 322 323 322 323 323 323 323 323 323 323 323 323 322 322 322 322 321 321 321 321 321 321 321 320 319 319 319 318
343 344 339 342 346 344 345 346 347 347 349 348 347 352 354 354 352 349 347 343 343 345 342 342 344 342 340 342 340 341 342 341 341 340 340 338 337 337 338 338 338 339 339 337 336 337 337 336 336 338 338 337 337 338 338 334 328 326 326 324 324 324 324 324 324 324 324 323 322 322 322 321 321 321 321 321 321 321 321 321 321 321 321 321 320
340 345 341 340 344 346 346 346 347 346 347 348 350 352 351 351 351 348 345 342 343 344 341 341 345 343 341 340 341 341 340 341 341 341 342 340 339 338 338 339 338 339 339 337 337 338 337 336 335 337 339 338 338 337 338 338 334 331 329 327 326 325 325 326 326 326 325 324 322 321 321 321 321 321 320 321 321 321 321 321 322 322 322 322 322
337 342 342 340 340 344 346 346 346 346 347 348 351 353 351 351 350 348 347 343 345 346 343 344 345 345 343 338 341 345 340 341 342 340 341 341 341 340 338 339 339 339 340 338 338 338 337 337 336 337 337 337 338 338 338 338 336 335 332 328 327 326 326 327 327 327 326 324 323 322 321 321 321 321 321 322 321 321 321 322 322 322 322 323 323
342 342 341 340 340 342 343 344 344 345 346 347 349 352 353 353 348 346 345 343 346 346 343 345 343 343 346 339 338 345 343 342 342 340 341 340 340 340 339 339 339 339 340 339 338 338 338 338 336 336 337 337 337 338 338 337 336 334 332 329 328 328 328 327 327 327 327 326 324 322 322 322 322 322 322 322 323 323 322 322 322 323 323 323 323
348 347 343 342 342 341 342 343 342 344 345 345 347 351 354 355 351 346 343 343 348 348 345 347 344 340 345 343 339 343 344 342 342 341 341 341 341 341 340 340 339 339 340 340 340 339 338 338 336 335 336 336 337 337 338 338 335 332 332 330 329 329 329 329 328 328 328 327 326 324 323 323 323 323 323 323 323 323 323 322 322 322 322 323 323
344 348 348 348 346 341 340 342 341 343 345 345 348 351 352 353 352 347 343 343 347 349 347 347 346 339 340 344 343 343 344 342 341 342 341 341 342 343 341 340 339 338 340 340 339 339 338 337 337 336 335 335 337 337 337 338 336 334 332 331 330 331 330 330 329 328 329 328 327 326 324 324 324 323 323 322 322 323 322 321 320 320 320 321 323
336 341 346 352 352 345 339 340 341 343 344 343 346 350 349 349 349 346 345 346 346 349 348 346 345 340 336 343 345 342 345 343 340 341 342 341 341 340 341 341 339 338 340 340 339 339 338 336 336 336 336 336 336 337 337 337 336 335 334 332 331 331 330 330 330 329 329 329 328 327 325 324 324 324 323 324 325 325 323 322 321 320 319 319 321
336 335 339 347 351 347 340 341 343 343 344 343 342 345 346 345 347 346 345 348 348 349 349 347 345 341 335 342 346 344 344 344 342 340 340 342 341 339 341 342 339 337 339 341 339 338 337 336 336 335 336 336 335 337 337 336 336 335 334 333 332 331 331 331 331 330 330 330 329 327 325 325 325 324 325 326 327 327 326 326 324 321 318 317 318
342 337 335 339 344 342 339 341 345 344 346 346 340 338 340 339 344 346 344 347 349 349 349 347 345 341 334 337 343 345 345 344 344 342 340 342 343 342 342 342 342 340 340 341 340 339 337 336 337 337 337 336 335 336 337 335 336 335 333 331 331 332 332 331 331 330 330 330 329 326 325 325 326 326 327 327 327 328 327 327 326 323 319 317 317
345 343 338 335 337 338 337 339 344 345 346 347 342 337 335 336 343 346 342 345 351 350 350 348 344 341 338 334 334 338 344 344 343 344 342 340 342 343 343 341 342 342 342 341 341 341 338 336 337 337 338 336 334 336 337 335 334 334 333 332 333 334 334 331 330 329 329 329 328 326 325 326 326 327 327 326 326 326 327 327 326 323 319 317 317
341 346 345 340 336 336 337 337 339 342 344 345 343 338 335 335 342 346 344 345 349 350 351 348 343 341 342 340 332 329 338 343 341 342 343 339 338 340 341 340 340 341 343 343 341 341 339 337 336 336 338 338 336 336 339 337 333 330 332 335 336 336 333 330 328 327 327 327 327 325 325 326 326 327 325 324 324 325 325 325 325 323 320 318 318
336 341 345 344 340 336 337 337 336 338 340 343 343 339 335 335 338 345 349 349 349 349 351 348 341 338 340 344 340 330 331 336 336 337 339 335 331 332 337 339 337 337 340 342 341 340 339 338 337 337 338 338 338 338 339 338 333 326 328 334 337 334 330 328 326 325 326 326 326 325 325 326 327 326 325 324 324 324 324 324 324 323 321 320 320
337 337 339 342 341 337 337 338 339 340 337 338 341 340 338 336 336 343 351 353 352 351 351 346 339 334 335 339 342 338 332 331 330 334 336 332 326 327 332 335 334 332 334 338 341 341 340 338 337 339 339 338 337 337 338 339 335 327 326 333 336 332 328 327 327 327 328 327 326 326 325 326 327 326 326 325 325 325 325 325 324 324 322 320 321
339 339 337 338 340 339 337 338 342 346 342 336 337 340 341 338 335 340 349 353 353 353 351 347 340 334 329 328 334 336 333 331 330 330 334 333 327 324 327 331 333 331 329 333 338 340 341 340 338 338 339 340 339 336 335 338 338 331 325 328 330 329 329 330 332 332 331 330 329 328 327 327 327 327 327 326 325 326 326 325 325 324 322 321 322
339 340 340 339 338 339 340 339 341 346 345 338 335 339 342 341 337 337 344 348 350 351 350 346 340 337 331 325 325 327 328 329 328 328 335 338 333 328 327 329 333 335 331 329 334 339 340 340 341 339 337 339 340 338 337 337 338 336 331 327 326 327 330 333 335 334 333 332 332 330 329 328 328 327 327 327 327 327 327 326 325 325 323 322 324
342 343 343 343 341 339 341 342 341 344 346 341 336 337 340 341 339 337 339 342 344 347 347 342 337 337 335 328 324 325 325 325 325 327 334 341 340 336 333 331 332 337 338 334 333 339 341 340 342 342 339 339 339 339 339 338 337 338 337 333 329 329 332 334 333 334 333 333 331 330 330 329 328 328 328 328 327 327 327 327 326 325 324 324 325
349 349 345 346 346 343 342 343 343 343 343 341 337 336 337 338 338 337 337 340 342 344 344 340 335 334 333 330 325 325 325 325 324 325 330 337 341 340 337 335 331 333 340 340 335 334 339 342 342 342 341 341 339 339 339 339 337 338 339 337 335 335 335 335 335 336 335 334 333 333 332 330 328 327 327 327 327 327 327 327 327 326 326 326 326
351 355 352 347 347 347 345 344 344 342 341 339 337 336 337 336 336 337 337 339 340 341 343 342 338 334 331 330 327 326 326 326 324 324 326 329 333 335 335 336 332 327 333 340 339 335 335 338 341 342 342 341 340 340 340 340 339 339 338 338 338 337 335 333 335 336 335 334 334 334 333 330 328 327 326 326 326 326 327 327 328 327 327 327 327
347 355 357 352 347 347 347 345 344 342 339 338 338 337 337 337 336 336 337 339 341 341 341 342 341 338 334 332 330 329 328 327 325 324 326 326 327 330 332 333 331 327 326 330 336 338 337 338 339 341 342 341 341 340 340 340 340 339 339 339 338 337 334 332 332 334 334 333 334 333 332 330 328 328 327 326 325 326 327 327 328 328 328 327 325
345 350 357 357 349 344 346 346 346 345 341 339 340 338 337 338 338 336 337 340 341 341 341 342 344 344 340 334 332 331 330 328 326 324 325 326 326 326 328 329 330 329 328 328 330 336 340 341 340 340 341 341 340 340 340 341 340 339 337 338 339 338 336 333 332 332 333 333 333 333 332 331 331 331 330 329 328 328 328 328 328 328 326 325 324
350 348 353 359 355 347 343 345 346 346 344 342 342 340 338 338 339 337 336 338 341 342 341 342 347 351 346 338 335 333 331 330 328 326 325 325 326 326 325 327 329 329 331 332 333 336 340 343 342 341 340 340 340 340 340 340 340 338 335 335 337 337 336 334 332 331 332 331 330 331 332 332 332 333 333 332 331 331 330 330 329 327 325 324 324
357 353 352 357 359 355 348 344 344 346 345 343 343 342 339 337 339 339 337 336 340 343 344 342 347 353 351 343 340 339 335 332 330 329 328 326 325 326 324 324 327 329 330 333 337 340 342 343 343 341 341 340 340 339 340 340 340 338 336 337 337 336 335 334 333 333 333 332 332 332 333 332 333 333 334 333 332 331 331 329 328 326 325 324 324
359 356 354 356 360 360 356 348 344 345 346 345 342 341 339 338 337 339 338 337 338 341 344 342 344 352 353 347 345 345 342 338 333 331 332 331 329 328 327 325 326 327 328 332 338 342 344 343 342 342 342 341 340 340 339 340 340 339 338 338 337 336 335 335 335 334 333 333 334 333 331 331 332 332 333 332 331 330 329 327 326 326 325 324 324
358 357 355 355 358 361 361 356 348 344 344 345 344 341 340 338 338 338 338 339 338 338 340 340 342 349 352 348 347 348 347 344 339 333 333 335 334 333 332 332 332 331 331 334 337 341 343 343 342 343 342 341 340 339 339 339 339 338 338 338 338 337 336 335 335 334 332 332 332 332 331 330 330 330 330 330 329 329 327 326 325 325 323 322 319
357 357 356 354 353 357 363 363 357 350 345 344 344 342 340 338 337 338 338 340 340 338 338 338 341 345 347 346 347 349 349 347 343 336 333 335 338 337 337 337 337 337 338 339 340 342 343 342 343 343 342 341 340 339 339 339 339 337 337 338 338 338 336 334 334 333 332 330 331 332 331 330 330 329 329 329 328 327 326 326 324 322 319 316 312
355 355 354 352 350 352 359 363 362 357 350 346 345 343 342 339 336 337 340 342 342 340 338 338 339 341 341 342 346 347 347 347 344 339 335 334 337 340 340 341 340 340 341 342 342 343 343 343 343 344 342 341 340 339 339 339 338 338 337 337 337 336 335 333 331 331 331 329 329 329 327 327 328 328 327 327 327 326 326 324 322 319 317 313 308
352 352 353 353 351 350 352 357 360 359 356 352 349 346 345 344 340 338 338 341 343 342 339 337 337 338 337 338 342 344 344 345 344 341 338 335 336 339 341 342 343 342 342 342 343 343 344 344 344 344 343 341 341 340 339 339 338 337 337 337 337 336 335 333 329 326 325 325 326 326 325 326 327 327 326 326 325 325 324 323 322 320 316 311 307
351 350 351 350 351 351 350 351 355 358 357 355 352 348 346 346 345 344 342 343 343 342 341 340 338 337 337 337 337 339 340 341 341 341 340 337 336 338 340 342 343 344 344 344 344 344 345 344 344 344 343 342 341 340 340 339 338 338 337 336 335 334 333 329 325 323 325 327 328 327 326 327 327 325 325 324 323 323 323 322 321 318 315 311 307
353 351 351 350 350 352 352 350 350 353 355 353 352 349 347 346 346 347 347 346 346 344 344 344 342 338 338 338 337 337 337 338 339 339 340 340 338 337 338 340 342 344 344 344 345 346 346 345 345 344 343 342 342 341 340 339 339 338 336 333 330 328 325 323 324 327 329 329 329 327 326 327 326 324 322 322 322 322 321 319 318 317 315 312 307
353 351 351 352 351 351 353 351 349 350 352 353 351 347 346 347 346 347 348 348 349 348 347 348 347 344 340 339 339 337 336 337 339 340 340 340 340 339 339 340 342 344 345 345 346 347 347 346 345 344 343 342 341 340 339 338 338 337 333 330 330 328 327 327 329 330 328 327 328 327 327 327 325 322 321 320 320 319 319 318 317 317 316 314 310
351 351 354 356 355 355 356 355 352 349 349 354 355 351 347 349 348 348 348 349 349 349 348 348 349 348 345 343 341 338 338 338 339 342 342 341 341 340 340 342 343 344 345 346 347 347 346 345 345 344 343 342 339 338 338 337 337 334 329 327 330 331 330 330 331 329 327 327 327 326 325 324 323 321 320 319 319 318 317 317 316 316 316 316 315
352 355 358 361 362 362 361 359 356 351 349 355 361 359 354 352 351 349 349 349 350 350 350 349 349 347 346 347 345 338 337 339 338 340 342 342 341 340 340 343 344 344 345 346 347 346 345 345 345 345 343 341 337 336 336 336 335 332 326 323 326 330 331 330 329 328 327 326 325 324 323 323 323 321 319 318 318 317 316 316 316 316 317 317 315
Wind_Speed
5 4 4 4 4 3 2 1 1 3 2 3 1 2 3 3 4 6 5 5 5 5 3 4 4 3 3 4 4 5 5 4 4 4 1 2 3 5 5 5 4 3 3 3 3 4 4 5 5 4 4 4 5 4 4 5 5 4 4 4 4 4 4 3 3 3 4 4 3 3 4 4 4 3 2 2 2 2 2 3 3 3 4 5 5
5 5 5 5 4 3 3 1 1 1 3 3 2 3 4 4 3 5 3 3 3 5 4 4 4 2 3 4 3 4 4 3 2 3 3 2 2 3 4 5 5 4 3 4 3 4 5 5 5 5 4 4 4 4 4 4 5 4 4 4 5 4 4 3 3 4 5 5 5 4 5 5 5 4 4 3 3 3 3 3 4 4 4 5 5
6 7 5 4 3 3 3 2 2 2 3 3 1 1 3 2 2 2 2 2 4 4 3 3 4 3 3 3 2 3 4 3 2 2 5 3 4 2 2 3 5 5 4 3 3 4 5 5 5 5 4 4 3 4 4 4 4 5 5 5 6 5 3 4 4 4 5 5 5 5 5 5 5 5 6 5 5 5 4 5 5 5 5 6 6
10 9 6 4 4 3 3 3 3 3 3 4 2 2 3 3 2 2 3 4 4 3 2 2 4 2 2 3 3 4 3 3 2 1 3 3 3 4 2 4 3 4 4 3 3 4 4 4 4 4 4 4 4 4 4 4 4 4 4 5 6 5 4 5 5 5 5 5 5 6 6 6 6 6 6 6 6 6 6 6 7 7 7 7 7
11 10 7 5 5 5 5 4 4 3 3 5 4 2 3 5 4 3 3 3 3 5 4 1 3 2 1 3 2 3 2 2 2 1 2 4 2 2 0 4 3 2 3 2 3 3 4 4 3 4 4 4 5 5 4 4 5 5 4 5 5 5 5 6 6 6 6 6 6 7 7 7 7 7 7 7 7 7 7 8 8 8 8 8 8
11 10 8 5 5 5 5 4 4 4 5 5 2 1 3 5 4 2 3 2 3 5 4 1 3 2 1 1 2 2 1 2 2 2 3 3 4 1 1 3 3 2 2 1 1 2 2 3 4 4 4 4 5 5 4 5 5 5 3 4 4 5 6 7 7 7 7 7 7 7 7 7 8 8 8 8 8 8 8 8 9 9 9 8 8
11 11 10 7 5 5 5 5 6 5 4 4 2 0 3 5 4 2 2 2 3 4 4 2 1 1 2 2 3 2 3 3 2 2 2 2 3 3 1 3 3 3 3 1 1 1 1 2 3 4 3 4 4 4 5 5 5 4 3 4 6 6 8 8 8 8 8 9 9 8 8 9 9 9 9 9 9 9 9 9 9 10 9 9 9
12 12 10 8 6 5 6 7 7 4 3 5 3 1 3 5 6 3 2 2 3 3 2 1 1 1 2 2 3 2 3 3 2 1 2 4 2 2 2 4 3 3 3 3 2 1 1 1 2 3 3 3 3 3 4 4 4 3 3 5 7 8 8 8 8 9 9 9 9 9 9 10 11 10 10 10 11 10 11 11 10 10 10 11 11
14 13 12 9 7 6 8 8 7 5 5 5 2 2 3 4 6 5 3 3 3 3 1 1 1 1 2 2 3 3 3 2 2 2 2 2 2 2 3 4 4 4 3 3 3 2 2 0 0 1 2 2 2 1 2 2 1 2 3 4 6 8 9 9 9 10 10 9 9 9 9 10 11 10 10 10 11 11 12 12 12 12 11 12 12
15 14 13 11 8 8 8 8 6 5 6 4 2 3 3 3 5 4 4 3 3 3 2 0 1 1 2 3 3 3 2 1 3 3 2 2 3 4 4 4 5 5 3 2 3 2 2 3 2 1 1 2 1 1 1 1 0 2 2 2 5 7 7 7 8 10 10 9 10 10 10 11 11 11 11 11 12 11 12 12 12 12 12 12 12
16 15 13 12 10 8 9 9 7 6 6 4 3 4 4 5 4 3 5 4 2 2 2 0 2 2 3 4 3 4 4 2 3 4 3 3 4 4 4 4 4 5 5 3 5 3 2 3 3 3 2 1 0 1 1 1 1 1 1 2 4 6 5 5 6 7 8 8 9 10 9 10 11 11 12 13 13 12 12 13 13 13 13 13 13
16 15 14 12 11 9 10 10 8 6 6 5 4 4 5 6 4 3 4 3 3 2 0 1 3 2 3 4 2 3 5 3 3 5 3 4 4 4 4 4 4 5 5 4 4 3 3 3 3 4 3 3 2 1 1 1 1 0 1 1 3 4 4 4 4 5 5 5 5 6 7 8 9 10 11 13 13 12 13 13 13 13 14 14 13
16 15 14 13 12 11 11 11 7 6 8 6 5 6 6 6 4 3 3 1 1 1 0 2 3 2 3 3 1 2 3 3 5 5 4 5 5 4 4 4 4 3 3 4 5 4 5 5 4 3 3 3 2 1 2 2 2 2 1 1 1 3 3 3 3 3 3 3 3 3 4 5 6 6 7 9 10 10 11 12 12 13 13 12 13
16 15 15 13 12 12 12 11 8 7 9 7 6 6 6 5 4 2 2 2 2 2 2 2 3 1 2 4 3 3 2 2 5 5 5 6 5 4 4 4 5 5 4 4 6 5 5 5 4 4 3 3 2 1 2 2 2 3 3 2 1 1 2 2 2 3 2 3 2 2 2 4 4 4 5 5 6 7 8 9 10 10 10 11 11
16 16 15 13 13 13 13 11 9 9 9 8 6 6 6 5 4 2 2 3 2 2 2 3 2 1 4 5 5 6 5 4 5 5 6 6 6 6 5 3 5 5 4 5 6 4 3 4 4 4 3 4 2 1 2 2 2 3 3 2 2 2 3 3 3 3 3 3 3 3 3 3 4 5 5 5 6 7 7 8 8 8 9 9 10
17 17 16 14 13 14 13 11 10 10 9 9 7 7 6 5 4 3 2 2 2 2 1 4 5 4 5 4 4 6 6 8 7 6 7 6 6 8 7 4 5 5 4 5 7 4 3 4 4 4 3 3 3 1 1 1 1 3 2 1 1 1 2 3 3 3 3 3 3 3 3 3 4 4 5 5 6 6 7 8 8 8 8 8 8
18 18 17 15 14 14 13 12 12 11 10 9 8 7 5 5 4 3 3 3 3 3 1 2 6 8 6 3 4 4 4 10 10 7 7 6 6 7 6 5 6 5 3 5 6 5 3 3 5 5 4 4 4 3 1 1 1 2 2 2 2 1 1 2 2 3 3 3 3 3 3 3 4 4 5 5 6 6 6 7 8 8 8 8 8
20 19 17 16 15 14 13 12 12 12 11 10 8 7 6 6 5 4 4 4 5 4 2 2 5 8 8 5 4 1 3 8 9 7 8 5 6 8 5 5 6 5 4 5 5 5 3 2 5 5 5 5 4 3 2 2 3 3 4 4 4 3 3 3 3 3 3 3 3 3 3 3 4 4 5 5 6 6 7 7 7 8 8 9 9
20 20 18 16 16 14 14 13 12 12 12 10 9 7 6 6 6 5 5 5 6 5 4 5 4 6 8 6 5 1 2 5 5 6 7 4 5 7 6 6 7 5 5 6 4 5 5 3 3 2 3 4 4 4 2 1 2 3 3 4 4 4 3 3 3 4 4 4 5 5 5 4 4 5 5 5 6 6 7 8 8 8 9 9 10
19 20 19 17 16 15 14 14 13 12 12 11 9 7 8 8 6 6 6 6 6 5 7 7 5 4 8 7 7 5 4 5 4 6 7 6 6 6 5 8 7 6 5 4 6 8 6 3 3 3 2 3 4 5 2 1 1 2 2 2 2 3 3 3 3 4 4 5 6 6 6 6 6 6 6 6 7 7 8 8 9 9 10 10 10
19 21 20 18 17 16 15 14 13 13 12 11 10 9 9 9 7 6 7 7 8 7 9 10 6 5 8 9 8 7 7 6 5 6 6 5 8 7 7 7 6 7 7 5 6 6 5 4 3 3 2 0 3 5 4 2 1 1 1 1 2 2 3 3 3 4 5 6 6 7 7 7 8 8 8 8 8 9 9 9 10 10 11 11 11
19 21 21 19 18 17 16 15 14 13 13 11 10 10 9 9 8 7 8 9 8 8 9 11 9 7 8 10 11 9 8 7 6 7 5 3 4 7 9 9 7 7 7 6 7 4 3 5 4 3 4 2 2 4 5 5 3 2 1 2 3 4 4 5 5 5 6 7 7 8 9 9 9 9 10 10 10 10 10 10 11 11 11 12 12
20 21 22 20 19 18 17 16 15 15 14 12 11 11 10 9 9 8 9 11 9 8 9 10 12 11 8 10 12 10 9 9 8 8 6 4 4 5 7 7 6 7 8 7 8 6 5 5 3 3 6 4 4 5 4 6 6 4 4 4 4 5 6 6 7 7 7 8 8 9 10 10 11 10 10 11 11 11 12 12 12 12 12 12 12
21 20 21 21 21 20 19 17 16 16 15 14 12 12 11 10 10 10 11 12 10 9 10 11 12 13 10 9 10 10 9 9 8 7 6 6 5 4 5 3 2 5 6 6 7 7 7 7 5 6 7 6 6 7 6 7 7 5 4 6 6 6 7 7 8 8 8 8 9 10 10 11 11 11 11 11 12 13 13 13 14 14 14 14 13
23 22 21 21 22 22 20 19 19 17 16 14 13 12 12 11 11 11 11 12 11 9 11 12 12 13 12 10 9 10 10 9 8 7 7 8 7 5 4 3 4 5 5 5 6 7 8 10 8 6 8 8 8 9 9 7 8 7 5 7 7 7 9 9 9 9 9 9 9 10 10 11 11 11 11 11 12 13 14 14 15 15 16 16 15
26 25 22 21 21 23 22 21 20 19 17 16 14 13 13 12 12 12 12 13 12 10 11 13 13 13 13 12 10 10 10 9 9 8 7 8 8 7 5 5 5 5 6 6 6 7 8 9 9 7 8 10 9 11 10 7 9 11 9 9 9 9 9 10 10 10 10 10 10 10 11 11 11 11 11 12 12 13 14 14 15 16 16 16 16
26 26 25 23 23 24 22 20 20 20 19 18 17 16 15 14 14 14 14 13 11 11 12 13 14 14 14 14 12 10 10 10 9 9 8 7 7 8 8 7 6 6 7 7 7 9 9 7 9 9 10 12 12 11 11 9 11 15 14 12 12 11 10 11 12 12 11 12 11 11 11 10 10 11 11 12 13 13 14 14 15 15 16 16 17
26 27 27 26 26 26 24 20 20 20 19 18 19 19 18 17 17 17 17 15 12 12 13 14 15 15 15 16 15 12 10 10 10 9 9 9 8 8 9 9 8 6 6 7 7 8 9 8 9 10 10 13 12 11 12 11 12 15 15 13 14 13 11 11 12 12 12 12 12 11 11 10 10 11 12 12 13 13 14 14 15 16 16 16 16
27 27 27 28 28 28 26 23 21 20 19 19 20 21 20 19 19 19 18 17 13 12 14 15 15 15 15 16 17 15 12 12 12 10 11 12 11 10 10 10 10 8 7 7 7 7 8 9 10 10 11 12 11 9 11 11 11 12 13 13 13 13 11 10 11 12 11 12 12 12 11 11 11 11 12 12 12 13 13 14 15 15 15 16 16
30 27 27 28 28 29 28 27 25 22 22 21 21 21 20 19 20 20 20 19 17 14 15 17 16 16 16 16 17 17 15 15 14 13 13 15 14 12 11 11 11 10 8 7 7 7 8 8 8 9 11 12 11 9 11 11 10 10 12 12 12 12 10 8 9 11 11 12 12 12 12 12 12 12 11 12 12 12 13 13 14 15 15 15 16
32 31 29 29 29 29 29 29 28 26 25 23 22 22 21 20 20 21 19 18 18 17 16 18 18 18 18 17 17 18 18 17 17 15 15 17 15 13 12 12 12 12 11 9 8 8 9 8 7 7 8 9 9 9 10 11 10 9 10 11 11 11 10 9 10 11 11 12 12 13 14 14 13 13 12 13 12 12 13 13 14 14 15 15 16
34 33 33 32 31 31 30 29 29 28 28 27 25 24 23 22 21 21 18 16 16 18 19 19 19 19 20 20 19 19 19 19 18 16 16 17 16 14 14 13 13 13 13 12 10 9 9 9 8 8 7 9 11 11 11 11 11 11 9 10 11 11 10 10 11 11 11 12 13 13 15 15 15 14 15 15 15 15 15 15 15 15 16 17 18
35 34 34 34 33 33 32 31 29 28 29 30 28 26 25 24 23 22 21 19 17 17 19 20 20 20 21 22 22 22 21 20 20 18 17 17 16 15 15 15 15 14 14 14 13 11 10 10 10 10 8 9 12 13 12 11 12 13 11 10 11 11 10 10 11 12 11 11 13 14 14 15 15 16 17 17 17 17 17 16 16 17 18 18 19
36 35 35 34 34 34 33 33 32 30 30 31 30 29 27 26 25 24 24 24 21 19 20 22 21 22 22 23 23 24 23 22 21 19 17 16 16 15 16 16 15 15 15 15 15 14 12 12 13 12 11 11 12 13 13 12 12 13 14 12 12 12 12 10 11 14 14 14 15 14 14 15 16 17 18 18 18 18 18 17 18 18 19 20 21
36 35 35 34 34 34 33 33 33 32 31 33 32 31 30 29 27 26 26 26 25 23 23 24 23 23 24 24 24 24 25 24 23 21 18 17 16 16 16 16 15 15 15 15 15 14 13 12 13 13 12 12 13 13 13 13 12 13 14 14 13 13 12 11 11 13 15 16 16 15 14 15 17 18 18 18 18 18 18 18 18 19 20 21 21
35 34 35 35 34 34 33 33 34 33 33 34 34 33 33 32 30 28 27 27 27 26 27 27 25 25 25 25 24 24 25 25 24 23 21 19 19 18 17 18 17 16 16 16 16 15 14 13 13 13 13 13 14 14 13 13 12 13 14 14 13 12 13 12 11 12 14 15 16 16 17 17 17 16 16 17 17 17 18 18 19 20 21 21 22
35 33 35 36 35 35 35 34 35 35 35 35 36 35 34 33 32 30 29 29 28 28 28 28 27 27 26 26 25 25 25 26 26 25 25 23 22 21 20 20 20 18 18 18 17 17 16 15 14 13 13 13 14 15 14 13 13 13 13 14 13 13 13 13 11 12 14 16 16 16 18 18 17 16 16 16 17 18 18 19 19 20 21 21 22
38 34 34 36 38 37 36 35 35 37 37 37 37 37 35 34 34 33 31 30 30 30 30 30 29 29 29 27 27 26 27 27 27 27 27 26 25 24 23 22 22 21 20 19 19 18 17 16 15 14 14 14 14 15 15 15 14 13 13 13 13 13 14 14 12 12 13 15 15 16 18 18 18 19 18 18 19 19 18 19 19 20 21 21 22
40 37 34 35 39 39 38 37 37 37 38 39 39 38 37 36 35 35 33 30 30 31 31 31 29 29 31 30 29 29 29 28 28 28 28 28 28 27 26 25 24 22 21 21 20 19 18 17 16 15 14 14 15 16 15 15 15 15 14 14 13 14 14 14 14 13 13 12 13 14 17 18 19 20 20 19 18 18 18 18 18 18 19 20 22
39 38 35 34 37 40 40 39 39 39 39 40 40 40 40 39 38 37 36 33 31 31 32 32 28 26 30 32 32 32 32 30 29 29 30 29 29 28 28 27 26 24 23 21 20 20 18 17 16 15 14 15 16 17 16 15 15 16 16 15 14 14 14 15 14 14 14 14 13 13 14 15 17 17 18 18 17 17 17 17 16 17 19 20 21
36 37 35 34 34 38 40 41 40 40 41 42 42 42 42 41 40 39 39 37 35 33 34 34 30 26 29 33 33 32 33 32 31 30 29 30 30 29 28 28 27 26 25 23 21 20 19 18 17 15 15 16 18 18 18 17 17 17 16 15 15 15 14 14 14 14 15 14 13 12 12 13 14 15 16 17 18 17 16 16 17 17 18 20 23
36 36 36 34 33 35 38 41 41 41 42 44 45 45 44 43 42 41 41 40 39 36 36 37 35 29 30 33 33 32 32 33 32 31 29 29 29 29 28 27 27 27 26 25 23 21 20 19 17 15 16 18 19 19 19 19 18 16 15 15 16 15 13 12 13 14 14 13 12 13 13 13 13 14 15 16 16 14 14 17 18 17 18 21 24
38 37 37 36 35 34 35 39 41 42 43 45 45 46 45 45 44 43 42 42 41 40 39 40 39 34 32 34 34 32 33 33 33 32 30 29 28 28 27 27 27 27 26 26 25 23 22 21 17 16 17 19 20 20 20 19 17 16 17 17 16 14 13 12 12 12 13 14 14 14 13 13 14 14 14 15 14 13 13 16 20 20 20 22 24
40 39 39 39 39 36 35 36 39 42 43 44 45 46 46 46 45 44 43 42 42 43 42 41 41 38 37 37 36 34 34 35 35 34 32 30 29 28 27 27 27 27 26 26 26 24 24 22 19 18 19 20 20 20 20 19 17 16 18 19 16 13 13 13 11 11 14 16 14 13 14 14 12 13 14 14 14 12 13 18 20 20 21 22 22
41 42 42 42 42 41 38 37 38 41 43 43 44 44 44 45 45 44 44 44 43 43 44 44 43 42 42 40 38 37 37 36 36 36 34 33 31 30 28 27 28 28 26 26 27 25 23 22 20 21 20 20 21 21 20 19 18 17 18 19 16 14 15 14 13 12 14 16 15 14 16 14 11 11 12 12 11 11 14 18 19 20 22 22 21
43 44 45 45 44 44 43 41 40 41 43 43 44 44 43 43 43 44 44 44 44 44 45 45 45 45 45 44 42 40 39 38 38 37 36 35 34 33 31 30 29 30 29 28 29 28 26 24 23 23 21 19 21 22 20 21 22 21 19 17 15 14 14 14 14 15 16 16 15 14 15 13 9 9 10 10 10 11 14 18 19 21 23 21 17
45 45 46 46 46 45 45 45 43 43 43 44 44 45 44 43 42 42 42 43 45 46 46 47 47 47 46 46 46 44 42 42 42 40 37 37 36 35 34 33 32 32 32 32 31 31 30 28 27 27 25 22 21 21 21 22 21 20 19 17 15 15 15 14 15 15 13 11 11 12 14 12 8 8 10 10 10 11 13 17 20 21 21 19 16
44 44 45 46 46 45 45 46 46 45 45 45 46 46 46 44 43 42 43 44 44 46 47 46 46 48 49 48 47 47 45 45 44 43 39 37 37 37 36 35 34 33 35 35 33 31 30 30 29 29 27 24 22 21 22 21 18 17 17 17 16 16 15 14 12 10 7 9 13 15 14 11 8 8 10 10 11 12 13 16 18 18 17 17 18
43 45 44 44 45 45 45 46 47 47 46 45 46 48 47 45 44 44 44 45 45 46 47 45 43 44 48 50 50 49 48 46 45 44 41 39 38 39 37 36 35 34 35 36 34 32 31 30 30 30 28 27 26 25 25 23 19 16 16 15 14 13 12 11 10 9 9 11 12 12 11 10 8 8 10 11 12 14 14 13 13 15 17 18 17
44 44 42 41 42 42 42 44 45 45 44 42 44 48 48 46 44 44 44 45 46 46 48 48 45 43 44 47 49 50 49 47 46 43 41 40 40 40 39 37 37 37 37 36 34 31 30 30 29 30 31 31 31 29 28 27 24 19 17 16 13 11 13 14 13 11 11 10 11 13 13 11 8 8 10 11 12 12 11 9 10 14 16 16 16
42 40 38 37 36 35 36 39 42 42 41 39 39 43 45 45 44 44 44 46 47 48 48 49 50 49 47 44 47 53 51 48 49 47 43 41 41 42 42 39 38 40 37 34 34 32 31 30 28 29 32 32 33 32 30 28 26 22 20 18 15 14 14 15 13 12 11 10 13 17 17 13 9 8 9 9 10 10 10 10 10 11 11 13 14
Wind_Direction
199 202 199 200 206 197 166 238 167 126 232 243 265 325 20 9 20 54 33 2 12 23 51 109 87 76 81 75 86 88 91 99 95 96 51 2 67 83 77 79 81 91 123 146 178 184 183 181 184 190 187 179 173 178 177 166 168 177 184 188 191 189 184 203 219 227 243 248 252 263 271 265 257 264 273 286 305 304 302 308 314 315 313 314 314
205 195 203 208 207 203 168 186 209 136 266 283 352 347 356 353 22 54 25 354 21 19 30 84 90 99 91 79 84 79 83 116 104 76 109 230 308 72 85 76 91 109 128 143 173 191 191 192 198 200 196 191 184 191 193 183 184 182 181 192 208 208 195 207 229 236 242 252 256 260 266 261 254 258 266 268 278 287 290 301 307 307 306 306 304
213 201 199 214 209 204 185 188 184 164 248 277 1 328 325 349 53 37 326 8 26 14 8 72 92 106 98 86 71 69 83 114 129 82 110 153 296 342 106 99 99 116 132 149 176 197 195 196 207 208 203 194 193 205 205 201 200 193 187 193 208 213 207 219 237 243 243 253 261 260 263 262 259 264 269 267 270 277 285 294 297 299 300 300 300
209 204 191 199 204 201 198 203 204 195 228 258 238 234 293 330 6 333 354 25 7 342 331 61 99 116 106 99 58 55 88 109 112 125 106 127 296 312 144 126 98 107 126 151 184 204 200 197 205 210 208 192 193 207 209 215 216 205 201 205 209 206 210 226 236 241 241 247 257 264 264 262 261 262 268 274 280 283 286 289 292 296 298 298 299
211 205 195 192 207 204 197 213 223 216 233 249 242 249 302 317 336 359 29 19 337 334 339 37 114 134 100 104 80 63 103 130 105 120 127 128 138 308 22 122 117 122 131 146 184 206 198 190 197 202 204 193 198 207 206 214 220 213 207 215 220 213 217 228 232 234 238 240 245 257 264 267 269 268 271 275 281 286 287 289 292 294 296 298 299
213 209 200 196 215 214 202 208 219 224 239 248 247 357 309 309 323 7 34 3 323 337 350 59 113 128 134 90 99 61 50 132 129 130 152 133 119 159 300 123 134 128 131 143 182 217 193 181 187 196 203 198 203 212 215 221 222 216 204 215 229 229 232 236 239 239 242 247 248 253 262 270 274 275 278 279 281 286 288 288 289 289 290 292 295
212 211 203 197 210 223 219 217 225 225 232 260 272 302 291 300 312 348 21 351 318 337 9 26 30 108 156 105 104 84 55 109 134 136 151 125 135 193 160 102 120 116 114 99 77 271 225 187 181 184 197 202 209 213 223 235 238 232 213 218 225 226 234 239 245 246 246 252 256 257 259 265 270 275 278 279 280 282 282 282 283 284 286 288 291
211 211 207 203 204 220 235 236 241 237 224 250 264 267 286 298 308 331 331 312 322 341 2 321 314 94 133 110 109 106 87 107 128 123 114 106 133 208 109 103 110 106 104 94 88 32 1 212 190 180 189 196 210 217 226 236 243 245 228 233 237 232 235 239 244 247 246 250 257 260 262 265 269 273 273 273 274 276 276 275 275 277 281 284 288
213 212 210 209 205 219 245 252 247 240 240 251 267 272 278 293 304 326 330 321 335 342 355 308 307 120 139 136 122 98 95 121 143 137 119 103 106 109 98 92 86 83 74 63 66 52 40 20 224 210 211 202 209 214 231 236 223 238 234 238 248 245 243 244 248 251 251 252 256 259 263 268 272 274 274 272 270 271 272 272 272 273 275 279 283
215 216 213 213 212 215 240 256 250 243 251 256 245 253 253 263 290 317 329 321 315 313 311 278 124 134 143 154 155 122 98 133 169 154 134 148 139 125 102 71 71 80 76 31 30 54 69 52 41 356 263 220 211 193 239 277 186 234 239 232 251 258 256 254 256 259 261 262 262 262 263 268 271 274 275 274 272 272 272 273 273 275 276 276 278
217 220 218 217 219 219 229 242 247 248 256 257 239 253 266 269 284 305 316 325 314 294 283 353 90 124 144 149 160 141 124 118 174 166 138 150 150 137 116 92 75 70 72 43 20 26 68 70 65 53 44 40 260 199 216 278 279 265 255 232 255 271 276 275 274 274 275 275 274 274 274 273 272 273 273 274 275 274 274 276 277 277 276 277 279
219 222 222 219 221 223 231 238 242 249 257 252 228 239 265 279 291 294 312 331 317 304 302 76 98 128 135 148 177 152 155 154 168 171 152 155 154 139 126 104 89 81 81 81 65 42 42 67 76 67 67 59 41 65 92 78 84 101 225 228 262 281 290 292 289 292 295 297 294 288 283 279 274 271 271 272 274 276 277 279 277 275 274 277 281
221 222 225 223 222 223 231 239 237 244 259 250 227 230 244 264 278 289 316 336 273 275 124 95 122 129 107 149 190 134 163 171 172 180 166 160 155 142 139 116 102 103 86 83 88 80 66 69 65 55 64 69 58 53 48 53 80 85 82 103 264 284 298 301 300 308 325 334 330 304 288 287 282 277 275 274 277 281 284 284 282 280 278 278 281
223 223 227 225 225 226 232 240 234 233 252 252 239 244 249 265 276 276 299 295 233 225 199 120 124 143 126 156 166 149 168 188 179 181 169 163 158 152 152 129 122 121 102 83 73 74 83 86 80 61 50 55 46 14 35 47 54 48 34 32 27 333 332 335 335 346 9 12 353 327 301 300 306 303 298 292 290 292 294 295 295 293 291 288 288
225 226 228 225 227 231 235 242 240 234 247 253 249 256 257 260 261 239 256 279 261 237 198 153 140 152 169 172 174 168 162 172 193 191 177 176 177 171 162 140 152 147 125 118 106 94 93 83 77 70 64 74 67 3 29 56 36 25 22 14 12 357 345 349 356 358 4 3 350 342 329 318 317 313 312 310 305 304 304 307 309 307 307 304 301
228 228 229 226 228 233 235 239 244 243 246 253 254 256 258 251 245 223 224 252 235 237 213 162 157 160 184 189 180 183 168 159 177 190 179 175 182 177 166 162 164 146 118 127 126 114 86 61 59 61 62 88 102 101 32 27 11 22 36 24 1 334 337 352 7 12 9 1 358 356 348 336 331 324 319 317 312 312 311 311 314 314 315 314 311
229 230 229 228 230 233 236 239 246 253 250 253 257 251 248 241 237 229 220 218 192 196 216 180 180 176 179 173 179 200 169 156 163 179 186 180 185 184 170 171 170 154 143 140 125 117 107 33 42 55 51 65 89 102 59 14 28 49 73 95 95 101 48 39 36 33 27 10 4 0 355 348 338 333 326 323 320 318 316 314 314 314 315 318 318
229 231 228 228 232 232 236 240 245 255 255 252 252 246 241 234 234 231 226 226 205 197 191 194 202 190 186 187 189 155 107 155 164 175 196 194 183 187 176 174 185 180 171 163 132 119 136 41 47 56 58 74 91 102 100 45 55 65 73 84 90 93 85 76 62 46 36 18 12 5 359 355 341 336 331 328 327 322 321 319 318 318 319 321 323
227 231 228 226 234 233 234 239 241 250 257 254 248 241 236 235 233 221 228 237 223 211 197 210 237 205 195 197 192 165 122 172 167 160 191 203 187 197 190 182 194 190 174 179 166 144 148 126 108 104 77 91 99 102 116 42 64 72 65 67 69 71 68 64 59 44 33 19 10 3 356 352 345 341 336 329 325 322 320 320 320 321 323 323 324
223 229 230 225 231 234 233 235 238 242 250 255 250 234 223 229 232 220 231 246 239 219 185 203 248 214 195 194 192 206 187 181 184 169 182 192 196 216 206 191 199 194 188 196 187 182 187 169 140 154 109 101 115 120 151 287 80 88 67 67 54 50 42 32 30 17 10 4 356 353 346 343 343 340 339 335 330 327 324 323 321 320 320 320 321
223 226 233 228 228 232 232 233 236 237 243 249 246 234 225 230 233 228 240 247 246 228 181 184 212 207 208 199 186 203 194 186 208 192 192 196 191 201 198 197 207 199 198 203 194 203 231 226 167 152 170 178 136 144 168 206 154 121 95 45 1 5 359 349 353 349 350 351 345 344 340 337 339 338 338 338 336 335 332 329 327 324 322 320 318
229 225 231 232 229 230 231 232 234 235 238 239 235 232 227 228 230 230 241 243 240 231 198 191 195 195 222 207 182 192 198 194 200 191 211 247 197 196 190 191 206 205 202 203 202 217 223 208 195 167 190 220 217 181 175 189 208 215 238 301 309 320 327 322 326 332 335 341 340 338 337 336 336 337 337 336 336 336 334 333 331 328 326 323 320
233 229 230 232 231 230 230 231 233 234 235 234 231 231 224 227 231 229 241 243 237 235 217 205 194 182 205 210 187 188 197 195 198 196 203 208 202 217 201 189 197 197 200 205 209 213 198 201 225 200 201 214 223 229 212 204 223 238 256 283 286 293 305 305 311 320 322 328 331 330 332 332 332 333 333 333 333 333 333 332 331 329 327 325 323
229 230 231 232 231 231 229 230 232 232 233 234 230 225 219 222 229 228 239 240 233 230 217 208 202 188 190 205 194 191 198 197 202 211 208 195 199 224 222 223 212 187 194 205 207 214 210 211 220 208 218 235 224 225 227 226 251 268 262 273 278 281 288 290 297 305 309 314 317 321 324 325 325 326 327 329 329 329 329 328 328 326 325 323 321
228 228 228 229 232 234 231 229 231 230 231 232 228 221 216 217 223 226 235 238 231 224 215 209 210 201 194 199 200 198 204 204 204 210 210 208 207 213 219 221 209 192 191 198 203 212 218 222 230 222 217 225 229 236 237 234 261 279 273 274 275 272 278 280 282 289 296 301 305 311 315 317 317 318 320 324 324 324 324 324 324 322 321 319 317
233 231 227 224 228 236 236 233 233 232 231 232 228 224 219 218 223 225 231 239 234 223 218 213 211 209 199 197 203 204 204 205 207 205 201 206 210 210 214 208 206 204 195 199 207 209 215 223 230 227 214 214 224 243 250 240 251 268 273 276 275 269 269 272 273 277 282 288 294 300 304 307 309 311 314 317 318 318 317 317 317 317 316 314 312
236 235 231 225 226 234 238 234 232 233 233 233 233 231 230 228 228 226 229 236 232 221 219 216 214 215 205 195 199 206 207 203 203 204 200 202 209 209 209 207 210 210 197 198 207 208 213 219 218 220 225 228 223 228 242 235 239 258 264 266 270 269 265 262 264 268 270 277 284 289 294 299 303 305 308 311 312 312 311 310 311 311 311 310 309
235 237 235 231 229 235 238 233 231 233 232 232 236 237 238 237 232 228 230 232 229 222 221 219 217 219 214 202 195 196 205 206 200 205 204 200 203 205 203 203 204 208 201 197 207 216 216 213 210 208 222 238 234 223 233 236 235 248 257 259 259 260 260 255 254 260 262 266 274 280 287 294 299 303 304 306 306 305 304 304 304 307 308 309 310
233 235 237 235 233 235 237 234 230 231 229 230 236 239 241 238 230 227 229 227 224 221 220 221 219 218 220 216 206 196 198 206 202 203 210 207 202 202 203 202 200 204 207 205 213 222 215 212 218 216 223 244 247 227 230 242 241 242 250 255 252 251 256 251 248 254 257 260 268 275 280 287 294 299 300 300 300 299 299 298 299 302 305 309 312
233 231 234 237 236 235 236 235 233 231 230 230 234 238 240 237 230 227 228 225 225 221 217 219 217 213 216 221 222 212 203 209 208 203 215 219 213 209 209 208 206 205 206 214 219 217 214 217 230 234 233 242 247 236 236 244 243 236 237 241 243 250 258 257 254 259 260 263 269 272 274 281 290 294 295 296 296 296 296 295 295 297 300 304 308
237 233 232 234 236 237 237 237 236 235 233 232 234 237 238 236 232 228 226 224 222 217 215 218 215 213 213 214 225 225 213 215 218 210 219 230 226 218 215 214 216 213 208 215 221 215 215 217 225 238 244 246 244 236 240 248 248 238 230 233 242 251 260 263 263 265 267 269 271 273 275 280 287 292 295 297 298 297 297 295 293 292 293 295 300
238 237 236 235 236 237 237 237 236 235 236 234 234 237 238 236 233 229 226 224 219 214 216 220 217 216 216 213 220 228 222 220 223 218 221 234 235 224 220 221 223 222 215 214 220 219 217 218 219 224 240 257 254 242 236 245 256 253 236 231 243 253 259 264 268 268 267 270 272 272 274 280 285 291 295 297 298 298 298 297 293 291 290 293 298
238 239 239 238 237 237 237 237 234 232 236 237 235 235 237 236 235 230 224 221 219 214 216 221 220 220 223 222 221 227 228 225 226 223 221 232 238 230 223 224 226 228 225 219 220 223 224 223 223 223 225 237 251 257 246 233 248 264 259 242 245 254 258 262 270 274 274 275 275 275 278 282 286 290 293 294 295 295 295 293 291 290 289 292 297
238 238 239 239 239 237 237 237 236 232 234 238 236 233 235 236 236 233 227 225 225 221 219 223 223 222 226 230 228 229 232 231 230 229 221 225 236 233 227 227 225 227 231 228 221 221 229 228 225 232 231 223 234 253 253 234 233 253 264 262 257 258 257 252 258 272 283 284 282 284 287 288 290 292 293 293 292 292 290 289 288 288 289 292 296
237 238 238 238 239 238 236 236 236 233 233 237 238 235 235 236 237 236 234 233 233 230 229 230 229 225 226 232 234 233 234 234 234 233 225 219 226 230 229 230 227 222 227 234 227 218 223 230 230 235 236 232 234 239 243 243 234 232 246 260 262 259 258 256 255 266 276 278 280 288 292 290 291 291 291 291 290 288 286 285 285 286 288 292 296
232 236 238 238 238 239 238 235 235 234 234 236 238 236 236 237 239 238 237 237 238 237 238 239 237 234 232 235 238 237 237 238 237 236 231 223 222 226 228 230 233 226 220 228 235 227 221 224 230 232 229 234 242 238 234 240 240 233 236 245 250 252 256 259 260 265 270 274 282 291 293 292 292 293 293 292 289 287 285 283 284 285 287 291 295
227 230 236 238 238 239 239 237 235 235 235 236 238 237 236 238 239 239 238 239 240 241 242 243 242 241 240 241 243 241 238 239 241 240 237 233 229 230 230 230 234 235 225 222 232 236 230 225 226 230 228 229 236 238 234 232 235 238 240 241 242 245 252 256 258 263 272 282 288 290 293 297 297 295 294 293 291 289 287 286 287 287 290 293 295
230 225 230 237 239 238 239 238 236 236 235 236 237 237 237 238 239 240 239 238 239 241 244 246 246 246 245 245 246 244 241 241 243 244 242 239 237 236 234 233 234 238 236 229 228 232 234 231 228 229 232 233 234 238 236 232 232 236 240 245 248 252 258 262 261 261 271 284 291 290 294 302 305 303 300 297 295 293 292 291 289 289 292 294 293
234 228 223 231 238 239 239 238 237 236 236 235 236 237 237 237 238 240 239 237 238 240 244 246 246 246 247 249 247 245 244 242 243 245 244 242 241 239 239 238 236 237 238 237 233 230 230 232 230 230 236 241 241 242 243 239 237 238 238 239 245 256 263 266 266 266 266 273 280 284 292 300 302 303 304 303 300 299 296 293 292 295 297 296 294
234 231 223 223 232 238 239 238 237 237 237 236 235 236 238 238 238 240 240 239 237 238 242 244 240 237 243 249 250 247 247 245 244 244 244 243 241 240 241 240 238 237 237 236 235 230 227 227 229 232 239 245 244 244 246 243 239 245 249 243 238 243 254 264 271 273 273 276 278 279 285 289 292 296 300 301 300 297 294 295 299 302 300 298 300
228 230 224 219 224 233 238 239 238 237 238 238 236 235 236 237 237 238 240 240 237 236 239 242 238 232 237 246 249 248 247 247 246 245 245 245 243 241 241 240 238 237 235 233 231 227 224 224 227 233 239 244 245 243 243 241 241 249 254 248 242 241 246 258 266 270 276 282 282 279 281 284 289 292 290 292 296 296 298 303 304 300 296 299 302
223 227 226 220 218 225 234 239 240 239 238 239 238 237 236 236 236 237 239 240 239 237 238 241 239 233 234 242 245 246 246 247 247 247 245 245 245 243 242 241 239 238 236 233 228 223 221 223 227 234 238 243 245 243 242 244 247 252 250 243 245 249 248 251 259 268 274 275 274 279 284 284 283 283 284 287 292 296 300 299 294 291 291 294 295
221 225 227 224 219 219 226 234 239 240 239 239 240 240 239 238 238 238 239 239 240 240 239 241 241 236 236 241 243 243 244 245 246 247 245 244 244 243 242 241 240 240 238 235 231 224 222 224 226 232 238 242 244 243 244 245 244 244 247 248 249 248 245 246 256 270 276 275 277 281 285 286 284 285 287 286 285 287 284 277 275 278 281 284 289
221 224 227 228 225 220 219 226 235 240 241 241 241 241 242 241 240 239 240 239 240 242 242 242 241 239 240 243 243 241 243 245 247 248 247 244 243 242 241 239 239 241 240 238 235 230 227 229 229 232 236 238 240 241 241 242 239 236 242 249 248 241 240 246 253 264 272 275 279 282 285 288 288 286 284 282 284 284 274 267 270 278 284 291 298
224 226 228 231 231 227 221 221 228 236 241 242 242 242 242 243 242 240 240 240 240 242 243 243 243 242 243 244 242 241 243 245 248 250 248 245 242 241 240 237 237 240 239 239 238 234 231 232 231 234 236 234 237 239 237 237 237 234 239 246 244 239 243 250 253 257 266 275 280 282 285 288 285 281 281 283 284 278 271 274 281 289 296 303 306
228 230 231 232 234 233 230 226 227 232 238 242 243 244 243 243 244 243 241 240 240 242 244 245 244 244 245 245 243 243 244 245 247 249 248 246 242 240 238 236 235 238 238 238 238 237 235 232 229 231 233 231 233 236 235 235 234 230 230 235 235 237 243 251 260 268 278 287 289 285 284 284 280 277 278 281 281 278 279 284 288 291 297 304 308
232 233 234 235 236 236 236 235 232 232 236 240 244 246 245 243 244 244 243 240 240 241 243 244 245 246 246 246 245 245 245 246 247 247 246 245 243 239 239 237 236 238 240 240 240 239 238 235 232 231 233 233 233 232 231 233 234 229 226 226 229 235 243 256 271 284 293 291 279 276 278 276 270 271 275 281 283 282 282 284 286 290 298 307 313
232 235 236 238 238 237 239 240 239 238 238 240 244 247 247 245 243 242 243 241 240 240 241 242 244 246 246 246 245 245 244 245 248 247 245 244 244 241 240 239 239 239 243 245 244 241 239 238 236 233 232 234 236 235 232 230 228 224 225 232 238 242 252 265 274 280 279 264 261 268 270 261 256 266 276 282 282 278 279 283 287 291 297 305 312
231 235 236 238 240 240 240 242 243 243 242 242 245 248 249 247 243 241 241 241 240 240 240 239 240 243 245 245 245 245 244 243 245 246 243 240 242 243 241 239 239 239 240 244 245 241 237 238 238 235 230 227 230 234 234 231 228 225 225 232 237 241 253 264 263 257 254 253 256 256 245 236 246 268 278 281 281 282 286 288 288 286 289 300 311
233 235 235 236 239 240 239 241 244 246 246 243 243 245 247 247 245 242 242 242 241 241 240 240 239 240 243 244 244 244 244 242 242 243 242 237 237 241 242 239 237 236 235 237 240 237 234 234 236 235 232 228 226 229 233 233 232 232 231 231 229 231 245 254 254 253 252 244 236 233 235 243 256 269 278 284 286 288 288 281 279 284 292 304 313
235 234 232 231 233 234 236 240 244 248 248 242 238 241 244 246 246 244 242 241 242 243 242 241 241 241 242 243 244 244 243 241 241 241 241 237 233 236 239 238 235 235 231 229 232 234 232 232 233 234 233 229 225 226 229 232 232 233 235 235 229 227 237 245 246 243 244 242 235 236 244 254 260 265 275 284 288 287 281 278 279 282 288 296 301